| time (UTC) | temp F | wind direction | speed MPH | gust MPH | rain 1hr in | rain 24hr in | rain mn in | humidity % | barometer mb |
| 20260904174009 | 93 | 272 | 1.0 | 4.0 | 0.00 | 0.00 | 0.00 | 61 | 1015.5 |
| 20260904173505 | 93 | 228 | 1.0 | 4.0 | 0.00 | 0.00 | 0.00 | 60 | 1015.6 |
| 20260904173019 | 94 | 296 | 0.0 | 2.0 | 0.00 | 0.00 | 0.00 | 60 | 1015.7 |
| 20260904172508 | 93 | 282 | 0.0 | 2.0 | 0.00 | 0.00 | 0.00 | 60 | 1015.8 |
| 20260904172008 | 93 | 190 | 1.0 | 2.0 | 0.00 | 0.00 | 0.00 | 59 | 1015.8 |
| 20260904171511 | 92 | 276 | 0.0 | 2.0 | 0.00 | 0.00 | 0.00 | 61 | 1015.9 |
| 20260904171010 | 92 | 239 | 0.0 | 5.0 | 0.00 | 0.00 | 0.00 | 60 | 1015.9 |
| 20260904170507 | 93 | 209 | 1.0 | 5.0 | 0.00 | 0.00 | 0.00 | 62 | 1015.9 |
| 20260904170019 | 92 | 173 | 1.0 | 5.0 | 0.00 | 0.00 | 0.00 | 63 | 1016.0 |
| 20260904165512 | 92 | 199 | 1.0 | 3.0 | 0.00 | 0.00 | 0.00 | 63 | 1016.1 |
| 20260904165011 | 92 | 217 | 1.0 | 2.0 | 0.00 | 0.00 | 0.00 | 64 | 1016.1 |
| 20260904164520 | 91 | 196 | 0.0 | 2.0 | 0.00 | 0.00 | 0.00 | 63 | 1016.2 |
| 20260904164008 | 91 | 316 | 1.0 | 2.0 | 0.00 | 0.00 | 0.00 | 64 | 1016.2 |
| 20260904163508 | 91 | 296 | 0.0 | 3.0 | 0.00 | 0.00 | 0.00 | 64 | 1016.3 |
| 20260904163023 | 91 | 217 | 1.0 | 3.0 | 0.00 | 0.00 | 0.00 | 65 | 1016.4 |
| 20260904162512 | 90 | 200 | 1.0 | 3.0 | 0.00 | 0.00 | 0.00 | 65 | 1016.4 |
| 20260904162007 | 90 | 245 | 0.0 | 2.0 | 0.00 | 0.00 | 0.00 | 66 | 1016.4 |
| 20260904161522 | 90 | 290 | 0.0 | 2.0 | 0.00 | 0.00 | 0.00 | 66 | 1016.5 |
| 20260904161013 | 90 | 220 | 1.0 | 3.0 | 0.00 | 0.00 | 0.00 | 67 | 1016.5 |
| 20260904160508 | 90 | 221 | 1.0 | 3.0 | 0.00 | 0.00 | 0.00 | 66 | 1016.5 |
| 20260904160016 | 90 | 294 | 1.0 | 3.0 | 0.00 | 0.00 | 0.00 | 66 | 1016.6 |
| 20260904155509 | 90 | 22 | 1.0 | 2.0 | 0.00 | 0.00 | 0.00 | 66 | 1016.5 |
| 20260904155009 | 89 | 254 | 0.0 | 2.0 | 0.00 | 0.00 | 0.00 | 69 | 1016.7 |
| 20260904154526 | 89 | 10 | 0.0 | 2.0 | 0.00 | 0.00 | 0.00 | 68 | 1016.6 |
| 20260904154011 | 89 | 204 | 0.0 | 2.0 | 0.00 | 0.00 | 0.00 | 67 | 1016.7 |
| 20260904153512 | 89 | 190 | 0.0 | 2.0 | 0.00 | 0.00 | 0.00 | 68 | 1016.7 |
| 20260904153024 | 89 | 338 | 0.0 | 3.0 | 0.00 | 0.00 | 0.00 | 70 | 1016.7 |
| 20260904152512 | 88 | 250 | 1.0 | 3.0 | 0.00 | 0.00 | 0.00 | 70 | 1016.7 |
| 20260904152011 | 88 | 198 | 0.0 | 2.0 | 0.00 | 0.00 | 0.00 | 71 | 1016.9 |
| 20260904151525 | 88 | 195 | 1.0 | 2.0 | 0.00 | 0.00 | 0.00 | 71 | 1016.8 |
| 20260904151014 | 88 | 229 | 0.0 | 4.0 | 0.00 | 0.00 | 0.00 | 70 | 1016.9 |
| 20260904150511 | 87 | 314 | 0.0 | 4.0 | 0.00 | 0.00 | 0.00 | 71 | 1017.0 |
| 20260904150025 | 87 | 310 | 0.0 | 3.0 | 0.00 | 0.00 | 0.00 | 72 | 1017.0 |
| 20260904145513 | 86 | 352 | 1.0 | 3.0 | 0.00 | 0.00 | 0.00 | 72 | 1016.9 |
| 20260904145007 | 86 | 222 | 1.0 | 2.0 | 0.00 | 0.00 | 0.00 | 73 | 1016.7 |
| 20260904144528 | 86 | 244 | 0.0 | 2.0 | 0.00 | 0.00 | 0.00 | 74 | 1016.8 |
| 20260904144010 | 85 | 229 | 0.0 | 2.0 | 0.00 | 0.00 | 0.00 | 75 | 1016.8 |
| 20260904143512 | 85 | 333 | 0.0 | 2.0 | 0.00 | 0.00 | 0.00 | 75 | 1017.0 |
| 20260904143024 | 85 | 203 | 0.0 | 3.0 | 0.00 | 0.00 | 0.00 | 75 | 1016.8 |
| 20260904142514 | 85 | 335 | 0.0 | 3.0 | 0.00 | 0.00 | 0.00 | 75 | 1016.9 |
| 20260904142014 | 85 | 28 | 0.0 | 2.0 | 0.00 | 0.00 | 0.00 | 75 | 1016.9 |
| 20260904141526 | 84 | 209 | 0.0 | 2.0 | 0.00 | 0.00 | 0.00 | 76 | 1017.0 |
| 20260904141012 | 84 | 215 | 0.0 | 2.0 | 0.00 | 0.00 | 0.00 | 77 | 1017.0 |
| 20260904140513 | 84 | 113 | 0.0 | 2.0 | 0.00 | 0.00 | 0.00 | 78 | 1016.9 |
| 20260904140024 | 84 | 64 | 0.0 | 3.0 | 0.00 | 0.00 | 0.00 | 78 | 1017.0 |
| 20260904135510 | 83 | 216 | 0.0 | 3.0 | 0.00 | 0.00 | 0.00 | 78 | 1017.1 |
| 20260904135013 | 83 | 207 | 0.0 | 2.0 | 0.00 | 0.00 | 0.00 | 78 | 1017.0 |
| 20260904134515 | 83 | 227 | 0.0 | 3.0 | 0.00 | 0.00 | 0.00 | 79 | 1017.0 |
| 20260904134007 | 83 | 207 | 1.0 | 3.0 | 0.00 | 0.00 | 0.00 | 80 | 1017.0 |
| 20260904133510 | 83 | 242 | 0.0 | 2.0 | 0.00 | 0.00 | 0.00 | 81 | 1016.9 |
| 20260904133027 | 82 | 214 | 0.0 | 2.0 | 0.00 | 0.00 | 0.00 | 82 | 1017.0 |
| 20260904132503 | 82 | 221 | 0.0 | 2.0 | 0.00 | 0.00 | 0.00 | 83 | 1016.9 |
| 20260904132004 | 81 | 225 | 0.0 | 2.0 | 0.00 | 0.00 | 0.00 | 84 | 1017.0 |
| 20260904131503 | 81 | 198 | 0.0 | 2.0 | 0.00 | 0.00 | 0.00 | 85 | 1017.0 |
| 20260904131004 | 81 | 294 | 0.0 | 2.0 | 0.00 | 0.00 | 0.00 | 85 | 1016.9 |
| 20260904130505 | 80 | 210 | 0.0 | 2.0 | 0.00 | 0.00 | 0.00 | 86 | 1017.0 |
| 20260904130011 | 80 | 157 | 0.0 | 2.0 | 0.00 | 0.00 | 0.00 | 86 | 1017.0 |
| 20260904125505 | 80 | 192 | 0.0 | 1.0 | 0.00 | 0.00 | 0.00 | 87 | 1017.0 |
| 20260904125006 | 79 | 240 | 0.0 | 0.0 | 0.00 | 0.00 | 0.00 | 88 | 1017.0 |
| 20260904124514 | 79 | 240 | 0.0 | 0.0 | 0.00 | 0.00 | 0.00 | 89 | 1017.0 |
| 20260904124007 | 78 | 196 | 0.0 | 1.0 | 0.00 | 0.00 | 0.00 | 89 | 1017.0 |
| 20260904123509 | 78 | 227 | 0.0 | 1.0 | 0.00 | 0.00 | 0.00 | 90 | 1017.0 |
| 20260904123026 | 78 | 122 | 0.0 | 1.0 | 0.00 | 0.00 | 0.00 | 90 | 1017.0 |
| 20260904122515 | 77 | 287 | 0.0 | 0.0 | 0.00 | 0.00 | 0.00 | 91 | 1017.0 |
| 20260904122011 | 77 | 287 | 0.0 | 2.0 | 0.00 | 0.00 | 0.00 | 91 | 1017.0 |
| 20260904121504 | 77 | 197 | 0.0 | 2.0 | 0.00 | 0.00 | 0.00 | 92 | 1017.1 |
| 20260904121008 | 76 | 207 | 0.0 | 0.0 | 0.00 | 0.00 | 0.00 | 92 | 1017.0 |
| 20260904120503 | 76 | 207 | 0.0 | 0.0 | 0.00 | 0.00 | 0.00 | 92 | 1017.1 |
| 20260904120009 | 76 | 207 | 0.0 | 0.0 | 0.00 | 0.00 | 0.00 | 92 | 1017.0 |
| 20260904115504 | 76 | 207 | 0.0 | 1.0 | 0.00 | 0.00 | 0.00 | 93 | 1016.9 |
| 20260904115006 | 75 | 207 | 0.0 | 1.0 | 0.00 | 0.00 | 0.00 | 93 | 1017.0 |
| 20260904114518 | 75 | 199 | 0.0 | 0.0 | 0.00 | 0.00 | 0.00 | 93 | 1017.0 |
| 20260904114014 | 75 | 199 | 0.0 | 0.0 | 0.00 | 0.00 | 0.00 | 93 | 1017.0 |
| 20260904113508 | 75 | 199 | 0.0 | 0.0 | 0.00 | 0.00 | 0.00 | 93 | 1017.1 |
| 20260904113016 | 75 | 199 | 0.0 | 0.0 | 0.00 | 0.00 | 0.00 | 93 | 1017.1 |
| 20260904112510 | 75 | 199 | 0.0 | 0.0 | 0.00 | 0.00 | 0.00 | 93 | 1017.1 |
| 20260904112013 | 75 | 199 | 0.0 | 0.0 | 0.00 | 0.00 | 0.00 | 93 | 1017.0 |
| 20260904111526 | 75 | 199 | 0.0 | 0.0 | 0.00 | 0.00 | 0.00 | 94 | 1017.0 |
| 20260904111011 | 75 | 199 | 0.0 | 0.0 | 0.00 | 0.00 | 0.00 | 94 | 1016.9 |
| 20260904110515 | 74 | 199 | 0.0 | 0.0 | 0.00 | 0.00 | 0.00 | 94 | 1016.8 |
| 20260904110012 | 74 | 199 | 0.0 | 0.0 | 0.00 | 0.00 | 0.00 | 93 | 1016.7 |
| 20260904105506 | 74 | 199 | 0.0 | 0.0 | 0.00 | 0.00 | 0.00 | 93 | 1016.7 |
| 20260904105004 | 74 | 199 | 0.0 | 0.0 | 0.00 | 0.00 | 0.00 | 93 | 1016.8 |
| 20260904104512 | 74 | 199 | 0.0 | 0.0 | 0.00 | 0.00 | 0.00 | 93 | 1016.8 |
| 20260904104004 | 74 | 199 | 0.0 | 0.0 | 0.00 | 0.00 | 0.00 | 93 | 1016.7 |
| 20260904103505 | 75 | 199 | 0.0 | 0.0 | 0.00 | 0.00 | 0.00 | 93 | 1016.7 |
| 20260904103015 | 75 | 199 | 0.0 | 0.0 | 0.00 | 0.00 | 0.00 | 93 | 1016.8 |
| 20260904102507 | 75 | 199 | 0.0 | 0.0 | 0.00 | 0.00 | 0.00 | 93 | 1016.8 |
| 20260904102010 | 75 | 199 | 0.0 | 0.0 | 0.00 | 0.00 | 0.00 | 92 | 1016.8 |
| 20260904101526 | 75 | 199 | 0.0 | 0.0 | 0.00 | 0.00 | 0.00 | 92 | 1016.7 |
| 20260904101012 | 75 | 199 | 0.0 | 0.0 | 0.00 | 0.00 | 0.00 | 92 | 1016.7 |
| 20260904100512 | 75 | 199 | 0.0 | 0.0 | 0.00 | 0.00 | 0.00 | 92 | 1016.6 |
| 20260904100033 | 75 | 199 | 0.0 | 0.0 | 0.00 | 0.00 | 0.00 | 92 | 1016.6 |
| 20260904095514 | 75 | 199 | 0.0 | 0.0 | 0.00 | 0.00 | 0.00 | 92 | 1016.6 |
| 20260904095004 | 75 | 199 | 0.0 | 0.0 | 0.00 | 0.00 | 0.00 | 92 | 1016.7 |
| 20260904094508 | 75 | 199 | 0.0 | 0.0 | 0.00 | 0.00 | 0.00 | 91 | 1016.6 |
| 20260904094004 | 75 | 199 | 0.0 | 0.0 | 0.00 | 0.00 | 0.00 | 91 | 1016.6 |
| 20260904093505 | 75 | 199 | 0.0 | 0.0 | 0.00 | 0.00 | 0.00 | 91 | 1016.6 |
| 20260904093017 | 75 | 199 | 0.0 | 0.0 | 0.00 | 0.00 | 0.00 | 91 | 1016.5 |
| 20260904092509 | 75 | 199 | 0.0 | 0.0 | 0.00 | 0.00 | 0.00 | 91 | 1016.5 |
| 20260904092007 | 75 | 199 | 0.0 | 0.0 | 0.00 | 0.00 | 0.00 | 91 | 1016.4 |
| 20260904091527 | 75 | 199 | 0.0 | 0.0 | 0.00 | 0.00 | 0.00 | 91 | 1016.4 |
| 20260904091011 | 76 | 199 | 0.0 | 0.0 | 0.00 | 0.00 | 0.00 | 91 | 1016.4 |
| 20260904090511 | 76 | 199 | 0.0 | 0.0 | 0.00 | 0.00 | 0.00 | 91 | 1016.4 |
| 20260904090032 | 76 | 199 | 0.0 | 0.0 | 0.00 | 0.00 | 0.00 | 90 | 1016.3 |
| 20260904085513 | 76 | 199 | 0.0 | 0.0 | 0.00 | 0.00 | 0.00 | 90 | 1016.3 |
| 20260904085016 | 76 | 199 | 0.0 | 0.0 | 0.00 | 0.00 | 0.00 | 90 | 1016.2 |
| 20260904084534 | 76 | 199 | 0.0 | 0.0 | 0.00 | 0.00 | 0.00 | 90 | 1016.1 |
| 20260904084013 | 76 | 199 | 0.0 | 0.0 | 0.00 | 0.00 | 0.00 | 90 | 1016.0 |
| 20260904083505 | 76 | 199 | 0.0 | 0.0 | 0.00 | 0.00 | 0.00 | 89 | 1016.1 |
| 20260904083016 | 76 | 199 | 0.0 | 0.0 | 0.00 | 0.00 | 0.00 | 89 | 1016.0 |
| 20260904082508 | 76 | 199 | 0.0 | 0.0 | 0.00 | 0.00 | 0.00 | 89 | 1016.1 |
| 20260904082006 | 76 | 199 | 0.0 | 0.0 | 0.00 | 0.00 | 0.00 | 89 | 1016.0 |
| 20260904081518 | 76 | 199 | 0.0 | 0.0 | 0.00 | 0.00 | 0.00 | 89 | 1016.1 |
| 20260904081009 | 76 | 199 | 0.0 | 0.0 | 0.00 | 0.00 | 0.00 | 89 | 1016.1 |
| 20260904080516 | 76 | 199 | 0.0 | 0.0 | 0.00 | 0.00 | 0.00 | 88 | 1016.0 |
| 20260904080025 | 76 | 199 | 0.0 | 0.0 | 0.00 | 0.00 | 0.00 | 88 | 1016.0 |
| 20260904075513 | 76 | 199 | 0.0 | 0.0 | 0.00 | 0.00 | 0.00 | 88 | 1016.0 |
| 20260904075013 | 76 | 199 | 0.0 | 0.0 | 0.00 | 0.00 | 0.00 | 88 | 1016.0 |
| 20260904074535 | 76 | 199 | 0.0 | 0.0 | 0.00 | 0.00 | 0.00 | 88 | 1016.0 |
| 20260904074016 | 76 | 199 | 0.0 | 0.0 | 0.00 | 0.00 | 0.00 | 88 | 1016.0 |
| 20260904073518 | 76 | 199 | 0.0 | 0.0 | 0.00 | 0.00 | 0.00 | 88 | 1016.1 |
| 20260904073033 | 77 | 199 | 0.0 | 0.0 | 0.00 | 0.00 | 0.00 | 88 | 1016.1 |
| 20260904072505 | 76 | 199 | 0.0 | 0.0 | 0.00 | 0.00 | 0.00 | 88 | 1016.2 |
| 20260904072008 | 77 | 199 | 0.0 | 0.0 | 0.00 | 0.00 | 0.00 | 87 | 1016.2 |
| 20260904071529 | 77 | 199 | 0.0 | 0.0 | 0.00 | 0.00 | 0.00 | 87 | 1016.3 |
| 20260904071006 | 77 | 199 | 0.0 | 0.0 | 0.00 | 0.00 | 0.00 | 87 | 1016.3 |
| 20260904070508 | 77 | 199 | 0.0 | 0.0 | 0.00 | 0.00 | 0.00 | 87 | 1016.2 |
| 20260904070023 | 77 | 199 | 0.0 | 0.0 | 0.00 | 0.00 | 0.00 | 86 | 1016.3 |
| 20260904065513 | 77 | 199 | 0.0 | 0.0 | 0.00 | 0.00 | 0.00 | 86 | 1016.3 |
| 20260904065013 | 77 | 199 | 0.0 | 0.0 | 0.00 | 0.00 | 0.00 | 86 | 1016.4 |
| 20260904064528 | 77 | 199 | 0.0 | 0.0 | 0.00 | 0.00 | 0.00 | 86 | 1016.4 |
| 20260904064015 | 77 | 199 | 0.0 | 0.0 | 0.00 | 0.00 | 0.00 | 86 | 1016.5 |
| 20260904063514 | 77 | 199 | 0.0 | 0.0 | 0.00 | 0.00 | 0.00 | 85 | 1016.4 |
| 20260904063044 | 78 | 199 | 0.0 | 0.0 | 0.00 | 0.00 | 0.00 | 85 | 1016.6 |
| 20260904062517 | 78 | 199 | 0.0 | 0.0 | 0.00 | 0.00 | 0.00 | 85 | 1016.8 |
| 20260904062017 | 78 | 199 | 0.0 | 0.0 | 0.00 | 0.00 | 0.00 | 85 | 1016.8 |
| 20260904061514 | 78 | 199 | 0.0 | 0.0 | 0.00 | 0.00 | 0.00 | 85 | 1016.9 |
| 20260904061006 | 78 | 199 | 0.0 | 0.0 | 0.00 | 0.00 | 0.00 | 85 | 1017.0 |
| 20260904060510 | 78 | 199 | 0.0 | 0.0 | 0.00 | 0.00 | 0.00 | 84 | 1017.1 |
| 20260904060020 | 78 | 199 | 0.0 | 0.0 | 0.00 | 0.00 | 0.00 | 84 | 1017.1 |
| 20260904055510 | 78 | 199 | 0.0 | 0.0 | 0.00 | 0.00 | 0.00 | 84 | 1017.1 |
| 20260904055009 | 78 | 199 | 0.0 | 0.0 | 0.00 | 0.00 | 0.00 | 84 | 1017.2 |
| 20260904054530 | 78 | 199 | 0.0 | 0.0 | 0.00 | 0.00 | 0.00 | 83 | 1017.3 |
| 20260904054013 | 78 | 199 | 0.0 | 0.0 | 0.00 | 0.00 | 0.00 | 84 | 1017.2 |
| 20260904053515 | 78 | 199 | 0.0 | 0.0 | 0.00 | 0.00 | 0.00 | 83 | 1017.3 |
| 20260904053034 | 79 | 199 | 0.0 | 0.0 | 0.00 | 0.00 | 0.00 | 83 | 1017.3 |
| 20260904052516 | 79 | 199 | 0.0 | 0.0 | 0.00 | 0.00 | 0.00 | 82 | 1017.4 |
| 20260904052020 | 79 | 199 | 0.0 | 0.0 | 0.00 | 0.00 | 0.00 | 83 | 1017.4 |
| 20260904051535 | 79 | 199 | 0.0 | 0.0 | 0.00 | 0.00 | 0.00 | 82 | 1017.5 |
| 20260904051018 | 79 | 199 | 0.0 | 0.0 | 0.00 | 0.00 | 0.00 | 82 | 1017.5 |
| 20260904050515 | 79 | 199 | 0.0 | 0.0 | 0.00 | 0.00 | 0.00 | 82 | 1017.4 |
| 20260904050018 | 79 | 199 | 0.0 | 0.0 | 0.00 | 0.00 | 0.00 | 83 | 1017.5 |
| 20260904045507 | 79 | 199 | 0.0 | 0.0 | 0.00 | 0.00 | 0.00 | 82 | 1017.3 |
| 20260904045009 | 79 | 199 | 0.0 | 0.0 | 0.00 | 0.00 | 0.00 | 82 | 1017.2 |
| 20260904044539 | 79 | 199 | 0.0 | 0.0 | 0.00 | 0.00 | 0.00 | 82 | 1017.2 |
| 20260904044010 | 79 | 199 | 0.0 | 0.0 | 0.00 | 0.00 | 0.00 | 82 | 1017.2 |
| 20260904043514 | 80 | 199 | 0.0 | 0.0 | 0.00 | 0.00 | 0.00 | 82 | 1017.2 |
| 20260904043029 | 80 | 199 | 0.0 | 0.0 | 0.00 | 0.00 | 0.00 | 82 | 1017.3 |
| 20260904042516 | 80 | 199 | 0.0 | 0.0 | 0.00 | 0.00 | 0.00 | 81 | 1017.3 |
| 20260904042016 | 80 | 199 | 0.0 | 1.0 | 0.00 | 0.00 | 0.00 | 81 | 1017.1 |
| 20260904041533 | 80 | 199 | 0.0 | 1.0 | 0.00 | 0.00 | 0.00 | 81 | 1017.2 |
| 20260904041021 | 80 | 190 | 0.0 | 0.0 | 0.00 | 0.00 | 0.00 | 82 | 1017.3 |
| 20260904040517 | 80 | 190 | 0.0 | 0.0 | 0.00 | 0.00 | 0.00 | 82 | 1017.1 |
| 20260904040034 | 80 | 190 | 0.0 | 0.0 | 0.00 | 0.00 | 0.00 | 81 | 1017.1 |
| 20260904035516 | 80 | 190 | 0.0 | 0.0 | 0.00 | 0.00 | 0.00 | 81 | 1017.2 |
| 20260904035009 | 80 | 190 | 0.0 | 0.0 | 0.00 | 0.00 | 0.00 | 82 | 1017.2 |
| 20260904034524 | 81 | 190 | 0.0 | 0.0 | 0.00 | 0.00 | 0.00 | 81 | 1017.2 |
| 20260904034009 | 81 | 190 | 0.0 | 0.0 | 0.00 | 0.00 | 0.00 | 80 | 1017.2 |
| 20260904033513 | 81 | 188 | 0.0 | 0.0 | 0.00 | 0.00 | 0.00 | 80 | 1017.3 |
| 20260904033026 | 81 | 188 | 0.0 | 0.0 | 0.00 | 0.00 | 0.00 | 80 | 1017.5 |
| 20260904032513 | 81 | 188 | 0.0 | 0.0 | 0.00 | 0.00 | 0.00 | 79 | 1017.5 |
| 20260904032013 | 82 | 188 | 0.0 | 0.0 | 0.00 | 0.00 | 0.00 | 79 | 1017.4 |
| 20260904031530 | 82 | 188 | 0.0 | 0.0 | 0.00 | 0.00 | 0.00 | 79 | 1017.4 |
| 20260904031015 | 82 | 188 | 0.0 | 0.0 | 0.00 | 0.00 | 0.00 | 79 | 1017.5 |
| 20260904030515 | 82 | 188 | 0.0 | 0.0 | 0.00 | 0.00 | 0.00 | 78 | 1017.5 |
| 20260904030032 | 82 | 188 | 0.0 | 0.0 | 0.00 | 0.00 | 0.00 | 78 | 1017.5 |
| 20260904025517 | 82 | 188 | 0.0 | 0.0 | 0.00 | 0.00 | 0.00 | 78 | 1017.5 |
| 20260904025017 | 82 | 188 | 0.0 | 0.0 | 0.00 | 0.00 | 0.00 | 78 | 1017.5 |
| 20260904024536 | 82 | 188 | 0.0 | 0.0 | 0.00 | 0.00 | 0.00 | 78 | 1017.6 |
| 20260904024010 | 83 | 188 | 0.0 | 0.0 | 0.00 | 0.00 | 0.00 | 78 | 1017.5 |
| 20260904023509 | 83 | 188 | 0.0 | 0.0 | 0.00 | 0.00 | 0.00 | 77 | 1017.6 |
| 20260904023024 | 83 | 188 | 0.0 | 0.0 | 0.00 | 0.00 | 0.00 | 77 | 1017.4 |
| 20260904022511 | 83 | 188 | 0.0 | 1.0 | 0.00 | 0.00 | 0.00 | 77 | 1017.5 |
| 20260904022014 | 83 | 198 | 0.0 | 2.0 | 0.00 | 0.00 | 0.00 | 77 | 1017.6 |
| 20260904021530 | 84 | 193 | 0.0 | 2.0 | 0.00 | 0.00 | 0.00 | 76 | 1017.6 |
| 20260904021014 | 84 | 185 | 0.0 | 0.0 | 0.00 | 0.00 | 0.00 | 76 | 1017.4 |
| 20260904020516 | 84 | 184 | 0.0 | 0.0 | 0.00 | 0.00 | 0.00 | 76 | 1017.4 |
| 20260904020036 | 84 | 198 | 0.0 | 2.0 | 0.00 | 0.00 | 0.00 | 75 | 1017.5 |
| 20260904015517 | 84 | 198 | 0.0 | 2.0 | 0.00 | 0.00 | 0.00 | 75 | 1017.5 |
| 20260904015018 | 84 | 198 | 0.0 | 2.0 | 0.00 | 0.00 | 0.00 | 75 | 1017.3 |
| 20260904014534 | 84 | 184 | 0.0 | 2.0 | 0.00 | 0.00 | 0.00 | 75 | 1017.3 |
| 20260904014018 | 84 | 185 | 0.0 | 2.0 | 0.00 | 0.00 | 0.00 | 75 | 1017.1 |
| 20260904013517 | 84 | 196 | 0.0 | 0.0 | 0.00 | 0.00 | 0.00 | 75 | 1017.0 |
| 20260904013036 | 84 | 196 | 0.0 | 0.0 | 0.00 | 0.00 | 0.00 | 75 | 1017.0 |
| 20260904012515 | 84 | 196 | 0.0 | 0.0 | 0.00 | 0.00 | 0.00 | 75 | 1016.8 |
| 20260904012022 | 84 | 196 | 0.0 | 0.0 | 0.00 | 0.00 | 0.00 | 74 | 1016.6 |
| 20260904011536 | 84 | 196 | 0.0 | 0.0 | 0.00 | 0.00 | 0.00 | 74 | 1016.6 |
| 20260904011015 | 84 | 196 | 0.0 | 0.0 | 0.00 | 0.00 | 0.00 | 74 | 1016.7 |
| 20260904010516 | 84 | 196 | 0.0 | 0.0 | 0.00 | 0.00 | 0.00 | 73 | 1016.5 |
| 20260904010044 | 84 | 196 | 0.0 | 0.0 | 0.00 | 0.00 | 0.00 | 74 | 1016.4 |
| 20260904005517 | 84 | 196 | 0.0 | 0.0 | 0.00 | 0.00 | 0.00 | 74 | 1016.3 |
| 20260904005017 | 84 | 196 | 0.0 | 0.0 | 0.00 | 0.00 | 0.00 | 74 | 1016.2 |
| 20260904004532 | 85 | 196 | 0.0 | 0.0 | 0.00 | 0.00 | 0.00 | 73 | 1016.1 |
| 20260904004018 | 85 | 196 | 0.0 | 0.0 | 0.00 | 0.00 | 0.00 | 72 | 1016.1 |
| 20260904003521 | 85 | 196 | 0.0 | 0.0 | 0.00 | 0.00 | 0.00 | 72 | 1016.1 |
| 20260904003034 | 86 | 196 | 0.0 | 0.0 | 0.00 | 0.00 | 0.00 | 71 | 1016.0 |
| 20260904002518 | 86 | 196 | 0.0 | 0.0 | 0.00 | 0.00 | 0.00 | 71 | 1015.9 |
| 20260904002018 | 86 | 196 | 0.0 | 0.0 | 0.00 | 0.00 | 0.00 | 70 | 1015.9 |
| 20260904001525 | 86 | 196 | 0.0 | 0.0 | 0.00 | 0.00 | 0.00 | 70 | 1015.9 |
| 20260904001015 | 87 | 196 | 0.0 | 0.0 | 0.00 | 0.00 | 0.00 | 69 | 1015.7 |
| 20260904000513 | 87 | 196 | 0.0 | 0.0 | 0.00 | 0.00 | 0.00 | 68 | 1015.7 |
| 20260904000034 | 87 | 196 | 0.0 | 0.0 | 0.00 | 0.00 | 0.00 | 68 | 1015.6 |
| 20260903235516 | 87 | 196 | 0.0 | 0.0 | 0.00 | 0.00 | 0.00 | 67 | 1015.5 |
| 20260903235016 | 88 | 196 | 0.0 | 0.0 | 0.00 | 0.00 | 0.00 | 66 | 1015.5 |
| 20260903234535 | 88 | 196 | 0.0 | 0.0 | 0.00 | 0.00 | 0.00 | 64 | 1015.5 |
| 20260903234018 | 89 | 196 | 0.0 | 0.0 | 0.00 | 0.00 | 0.00 | 64 | 1015.6 |
| 20260903233522 | 89 | 196 | 0.0 | 0.0 | 0.00 | 0.00 | 0.00 | 64 | 1015.5 |
| 20260903233034 | 89 | 196 | 0.0 | 2.0 | 0.00 | 0.00 | 0.00 | 63 | 1015.4 |
| 20260903232517 | 90 | 201 | 0.0 | 2.0 | 0.00 | 0.00 | 0.00 | 63 | 1015.3 |
| 20260903232018 | 90 | 200 | 0.0 | 2.0 | 0.00 | 0.00 | 0.00 | 62 | 1015.3 |
| 20260903231534 | 90 | 200 | 1.0 | 2.0 | 0.00 | 0.00 | 0.00 | 61 | 1015.3 |
| 20260903231018 | 91 | 192 | 0.0 | 2.0 | 0.00 | 0.00 | 0.00 | 61 | 1015.3 |
| 20260903230517 | 91 | 197 | 0.0 | 2.0 | 0.00 | 0.00 | 0.00 | 61 | 1015.4 |
| 20260903230027 | 91 | 196 | 0.0 | 2.0 | 0.00 | 0.00 | 0.00 | 62 | 1015.5 |
| 20260903225513 | 91 | 193 | 0.0 | 2.0 | 0.00 | 0.00 | 0.00 | 61 | 1015.4 |
| 20260903225015 | 92 | 180 | 0.0 | 2.0 | 0.00 | 0.00 | 0.00 | 60 | 1015.4 |
| 20260903224515 | 92 | 209 | 0.0 | 2.0 | 0.00 | 0.00 | 0.00 | 60 | 1015.5 |
| 20260903224004 | 92 | 210 | 0.0 | 2.0 | 0.00 | 0.00 | 0.00 | 58 | 1015.6 |
| 20260903223504 | 92 | 189 | 0.0 | 2.0 | 0.00 | 0.00 | 0.00 | 58 | 1015.5 |
| 20260903223016 | 92 | 186 | 0.0 | 2.0 | 0.00 | 0.00 | 0.00 | 58 | 1015.5 |
| 20260903222509 | 93 | 200 | 0.0 | 1.0 | 0.00 | 0.00 | 0.00 | 58 | 1015.6 |
| 20260903222011 | 93 | 200 | 0.0 | 2.0 | 0.00 | 0.00 | 0.00 | 57 | 1015.6 |
| 20260903221523 | 94 | 209 | 0.0 | 3.0 | 0.00 | 0.00 | 0.00 | 56 | 1015.4 |
| 20260903221016 | 94 | 189 | 0.0 | 3.0 | 0.00 | 0.00 | 0.00 | 55 | 1015.4 |
| 20260903220513 | 94 | 192 | 1.0 | 3.0 | 0.00 | 0.00 | 0.00 | 55 | 1015.5 |
| 20260903220038 | 94 | 208 | 1.0 | 2.0 | 0.00 | 0.00 | 0.00 | 56 | 1015.6 |
| 20260903215514 | 94 | 185 | 0.0 | 2.0 | 0.00 | 0.00 | 0.00 | 57 | 1015.5 |
| 20260903215014 | 94 | 188 | 1.0 | 2.0 | 0.00 | 0.00 | 0.00 | 56 | 1015.5 |
| 20260903214535 | 94 | 200 | 1.0 | 3.0 | 0.00 | 0.00 | 0.00 | 56 | 1015.6 |
| 20260903214017 | 93 | 202 | 1.0 | 3.0 | 0.00 | 0.00 | 0.00 | 56 | 1015.6 |
| 20260903213504 | 93 | 246 | 1.0 | 2.0 | 0.00 | 0.00 | 0.00 | 56 | 1015.5 |
| 20260903213012 | 93 | 196 | 0.0 | 4.0 | 0.00 | 0.00 | 0.00 | 56 | 1015.5 |
| 20260903212508 | 93 | 175 | 1.0 | 4.0 | 0.00 | 0.00 | 0.00 | 56 | 1015.6 |
| 20260903212005 | 93 | 192 | 1.0 | 3.0 | 0.00 | 0.00 | 0.00 | 56 | 1015.5 |
| 20260903211551 | 93 | 196 | 0.0 | 3.0 | 0.00 | 0.00 | 0.00 | 56 | 1015.5 |
| 20260903211014 | 94 | 192 | 0.0 | 3.0 | 0.00 | 0.00 | 0.00 | 55 | 1015.5 |
| 20260903210510 | 94 | 194 | 1.0 | 3.0 | 0.00 | 0.00 | 0.00 | 54 | 1015.5 |
| 20260903210025 | 95 | 208 | 0.0 | 4.0 | 0.00 | 0.00 | 0.00 | 53 | 1015.5 |
| 20260903205513 | 95 | 175 | 0.0 | 5.0 | 0.00 | 0.00 | 0.00 | 52 | 1015.5 |
| 20260903205014 | 96 | 195 | 1.0 | 5.0 | 0.00 | 0.00 | 0.00 | 51 | 1015.4 |
| 20260903204528 | 97 | 195 | 0.0 | 2.0 | 0.00 | 0.00 | 0.00 | 50 | 1015.5 |
| 20260903204016 | 97 | 209 | 0.0 | 3.0 | 0.00 | 0.00 | 0.00 | 51 | 1015.6 |
| 20260903203513 | 97 | 177 | 1.0 | 4.0 | 0.00 | 0.00 | 0.00 | 51 | 1015.6 |
| 20260903203034 | 97 | 179 | 1.0 | 4.0 | 0.00 | 0.00 | 0.00 | 50 | 1015.6 |
| 20260903202505 | 96 | 207 | 0.0 | 4.0 | 0.00 | 0.00 | 0.00 | 50 | 1015.6 |
| 20260903202005 | 96 | 200 | 1.0 | 2.0 | 0.00 | 0.00 | 0.00 | 50 | 1015.6 |
| 20260903201512 | 96 | 178 | 0.0 | 2.0 | 0.00 | 0.00 | 0.00 | 50 | 1015.7 |
| 20260903201009 | 96 | 241 | 0.0 | 2.0 | 0.00 | 0.00 | 0.00 | 49 | 1015.8 |
| 20260903200510 | 96 | 255 | 0.0 | 2.0 | 0.00 | 0.00 | 0.00 | 50 | 1015.8 |
| 20260903200023 | 96 | 216 | 1.0 | 2.0 | 0.00 | 0.00 | 0.00 | 51 | 1015.8 |
| 20260903195512 | 96 | 221 | 1.0 | 3.0 | 0.00 | 0.00 | 0.00 | 49 | 1015.9 |
| 20260903195013 | 97 | 194 | 1.0 | 3.0 | 0.00 | 0.00 | 0.00 | 50 | 1016.0 |
| 20260903194528 | 97 | 198 | 0.0 | 3.0 | 0.00 | 0.00 | 0.00 | 51 | 1016.0 |
| 20260903194015 | 97 | 207 | 0.0 | 3.0 | 0.00 | 0.00 | 0.00 | 49 | 1016.1 |
| 20260903193515 | 97 | 170 | 0.0 | 2.0 | 0.00 | 0.00 | 0.00 | 49 | 1016.1 |
| 20260903193032 | 97 | 199 | 1.0 | 3.0 | 0.00 | 0.00 | 0.00 | 50 | 1016.2 |
| 20260903192517 | 98 | 198 | 1.0 | 3.0 | 0.00 | 0.00 | 0.00 | 48 | 1016.2 |
| 20260903192016 | 99 | 204 | 1.0 | 2.0 | 0.00 | 0.00 | 0.00 | 48 | 1016.3 |
| 20260903191533 | 99 | 178 | 0.0 | 2.0 | 0.00 | 0.00 | 0.00 | 47 | 1016.4 |
| 20260903191005 | 98 | 169 | 0.0 | 4.0 | 0.00 | 0.00 | 0.00 | 47 | 1016.4 |
| 20260903190507 | 98 | 240 | 0.0 | 5.0 | 0.00 | 0.00 | 0.00 | 47 | 1016.4 |
| 20260903190017 | 98 | 213 | 1.0 | 5.0 | 0.00 | 0.00 | 0.00 | 47 | 1016.6 |
| 20260903185511 | 97 | 246 | 0.0 | 2.0 | 0.00 | 0.00 | 0.00 | 48 | 1016.6 |
| 20260903185012 | 100 | 281 | 0.0 | 2.0 | 0.00 | 0.00 | 0.00 | 43 | 1016.7 |
| 20260903184528 | 100 | 196 | 0.0 | 2.0 | 0.00 | 0.00 | 0.00 | 46 | 1016.8 |
| 20260903184021 | 100 | 171 | 1.0 | 2.0 | 0.00 | 0.00 | 0.00 | 44 | 1016.8 |
| 20260903183514 | 99 | 186 | 0.0 | 2.0 | 0.00 | 0.00 | 0.00 | 46 | 1016.8 |
| 20260903183031 | 99 | 169 | 0.0 | 2.0 | 0.00 | 0.00 | 0.00 | 45 | 1016.9 |
| 20260903182516 | 99 | 201 | 1.0 | 2.0 | 0.00 | 0.00 | 0.00 | 45 | 1016.9 |
| 20260903182014 | 99 | 161 | 0.0 | 4.0 | 0.00 | 0.00 | 0.00 | 47 | 1016.9 |
| 20260903181532 | 98 | 207 | 1.0 | 4.0 | 0.00 | 0.00 | 0.00 | 47 | 1017.0 |
| 20260903181022 | 98 | 198 | 0.0 | 2.0 | 0.00 | 0.00 | 0.00 | 48 | 1016.9 |
| 20260903180516 | 97 | 186 | 0.0 | 2.0 | 0.00 | 0.00 | 0.00 | 47 | 1017.0 |
| 20260903180035 | 96 | 289 | 0.0 | 2.0 | 0.00 | 0.00 | 0.00 | 49 | 1017.0 |
| 20260903175509 | 96 | 184 | 0.0 | 2.0 | 0.00 | 0.00 | 0.00 | 50 | 1017.1 |
| 20260903175009 | 96 | 189 | 1.0 | 3.0 | 0.00 | 0.00 | 0.00 | 50 | 1017.2 |
| 20260903174537 | 96 | 248 | 1.0 | 3.0 | 0.00 | 0.00 | 0.00 | 50 | 1017.2 |